Regional Weather Roundup
Issued by NWS

Home | Current Version | Previous Version | Text Only | Print | Product List | Glossary On
Versions: 1 2 3 4 5 6 7 8 9 10 11 12 13 14 15 16 17 18 19 20 21 22 23 24 25 26 27 28 29
000
ASUS42 KTBW 230810
RWRFL
FLORIDA REGIONAL WEATHER ROUNDUP
NATIONAL WEATHER SERVICE TAMPA BAY RUSKIN FL
400 AM EDT THU OCT 23 2014

NOTE: "FAIR" INDICATES FEW OR NO CLOUDS BELOW 12,000 FEET WITH NO
SIGNIFICANT WEATHER AND/OR OBSTRUCTIONS TO VISIBILITY.


FLZ001>010-012>015-112-114-115-230900-
PANHANDLE FLORIDA

CITY           SKY/WX    TMP DP  RH WIND       PRES   REMARKS
PENSACOLA      CLEAR     56  46  69 N7        30.05S
PENSACOLA NAS  CLEAR     51  46  83 N6        30.04F
MILTON NAS     CLEAR     51  43  74 N6        30.06F
CRESTVIEW      CLEAR     46  43  89 NE3       30.07S
DUKE FIELD     FAIR      44  42  93 N3        30.05R
VALPARAISO     PTCLDY    51  44  77 N5        30.05R
MARY ESTHER    CLEAR     50  42  73 N8        30.04S
PANAMA CITY    FAIR      50  45  83 N6        30.02F
TYNDALL AFB    CLEAR     57  47  71 NE6       30.03F
APALACHICOLA   CLEAR     57  48  72 NE7       30.02S

STATION/POSITION SKY/WX   TEMP    WIND        PRES    WAVE   SWELL
                          AIR SEA DIR/SP/G            HT/PER HT/PER
                          (F)     (DEG/KT/KT) (MB)    (FT/S) (FT/S)
30.1N   87.6W              68 78   40/ 16/ 19 1016.4F   3/ 5
29.2N   88.2W              72 78   60/ 16/ 17 1016.6    5/ 6
28.8N   86.0W              73 80   60/ 16/ 19 1015.0F   5/ 5
PANAMA CITY BEAC           57 77   20/  6/  7 1016.6S
CAPE SAN BLAS    NOT AVBL
TOWER C                    69      70/ 18/ 21 1015.7S
28.5N   84.5W              73 81   70/ 17/ 19 1014.5F   4/ 4

$$
FLZ011-016>038-118-127-128-134-139-239-230900-
NORTH FLORIDA

CITY           SKY/WX    TMP DP  RH WIND       PRES   REMARKS
MARIANNA       LGT RAIN  48  46  93 CALM      30.04F
TALLAHASSEE    CLEAR     49  42  77 CALM      30.03F
PERRY          CLEAR     50  46  87 CALM      30.03F
CROSS CITY       N/A     47  45  93 CALM      30.01F
LAKE CITY      FAIR      50  48  93 NE3       30.02F
GAINESVILLE    CLEAR     51  47  86 CALM      30.01F
MAYPORT NAS    CLEAR     61  53  75 NW3       30.01F
JACKSONVILLE   PTCLDY    54  48  80 N7        30.02F
JAX NAS        CLEAR     67  45  45 N13       30.02F
JAX CRAIG      CLEAR     60  47  61 N7        30.01F
JAX CECIL      CLEAR     46  45  93 CALM      30.02F
FERNANDINA BEA FAIR      64  54  68 N6        30.00F
ST AUGUSTINE   CLEAR     57  51  80 NW7       30.01F

STATION/POSITION SKY/WX   TEMP    WIND        PRES    WAVE   SWELL
                          AIR SEA DIR/SP/G            HT/PER HT/PER
                          (F)     (DEG/KT/KT) (MB)    (FT/S) (FT/S)
SHELL POINT                58      20/  4/  7   N/A
KEATON BEACH               54      50/  3/  5 1016.5F
CEDAR KEY                  62      60/ 12/ 14 1016.6S
FERNANDINA                 64 73   10/  7/ 10 1015.8F
30.7N   81.3W                 76                N/A     3/ 5
MAYPORT                    62 76  340/  7/  8   N/A
31.4N   80.9W              67 75   40/ 12/ 16 1016.7F   3/ 5   2/ 6
ST AUGUSTINE               69      40/ 13/ 17 1016.3F

$$
FLZ040-043>046-052-053-057-058-063-144-230900-
INTERIOR CENTRAL FLORIDA

CITY           SKY/WX    TMP DP  RH WIND       PRES   REMARKS
OCALA          PTCLDY    54  48  82 N3        30.00F
THE VILLAGES     N/A     61  54  77 N5        29.89F
LEESBURG       PTCLDY    61  54  77 N6        29.99F
SANFORD        CLOUDY    65  56  72 N6        29.98F
ORLANDO EXEC   MOCLDY    66  56  70 N5        29.97F
ORLANDO INTL   MOCLDY    64  58  80 N8        29.98S
WINTER HAVEN   PTCLDY    64  57  78 N7        29.98F
LAKELAND       PTCLDY    63  55  77 NE7       29.97S
BARTOW         FAIR      64  55  72 NE8       29.97F
OKEECHOBEE       N/A    N/A N/A N/A MISG        N/A

$$
FLZ041-047-054-059-064-141-147-230900-
EAST CENTRAL FLORIDA

CITY           SKY/WX    TMP DP  RH WIND       PRES   REMARKS
DAYTONA BEACH  MOCLDY    68  54  60 NE12      29.98F
DELAND         PTSUNNY   61  55  82 N5        29.99F
JFK SPACE CTR  MOCLDY    69  57  66 NE6       29.96S
CAPE CANAVERAL MOCLDY    71  57  60 NE6       29.95S
PATRICK AFB    MOCLDY    73  60  64 NE14      29.95S
MELBOURNE      MOCLDY    73  60  63 NE10      29.94F
VERO BEACH     MOCLDY    73  63  70 NE8       29.93S
FT PIERCE      CLOUDY    75  64  68 NE6       29.92S
STUART         CLOUDY    75  64  69 NE8       29.92F

STATION/POSITION SKY/WX   TEMP    WIND        PRES    WAVE   SWELL
                          AIR SEA DIR/SP/G            HT/PER HT/PER
                          (F)     (DEG/KT/KT) (MB)    (FT/S) (FT/S)
28.5N   80.2W              74 81   30/ 14/ 17 1014.3F
28.9N   78.5W              73 81   10/ 10/ 14 1014.4R   5/ 7   5/ 7
TRIDENT PIER               68 80   20/  3/  5 1013.9S
28.4N   80.5W                 80                N/A     2/ 5
27.6N   80.2W                 80                N/A     3/ 4

$$
FLZ050-056-061-142-242-148-248-149-249-151-251-155-255-
160-260-230900-
WEST CENTRAL FLORIDA

CITY           SKY/WX    TMP DP  RH WIND       PRES   REMARKS
CRYSTAL RIVER  FAIR      55  52  88 CALM      29.99F
INVERNESS      FAIR      59  54  82 N6        30.00F
BROOKSVILLE    CLEAR     61  54  77 NE6       29.99F
ZEPHYRHILLS      N/A     57  55  94 N3        29.99S
CLEARWATER     PTCLDY    67  57  70 NE13      29.96F
TAMPA INTL     PTCLDY    66  54  65 NE9G16    29.97F
TAMPA EXEC     PTCLDY    63  57  82 CALM      29.98S
PLANT CITY     PTCLDY    64  61  88 NE6       29.98F
MACDILL AFB    CLEAR     64  60  86 E15       29.96F
ST PETERSBURG  CLEAR     70  61  73 NE22      29.95F
SARASOTA       CLEAR     67  60  78 NE12      29.93S
VENICE           N/A     68  63  83 MISG      29.93F

STATION/POSITION SKY/WX   TEMP    WIND        PRES    WAVE   SWELL
                          AIR SEA DIR/SP/G            HT/PER HT/PER
                          (F)     (DEG/KT/KT) (MB)    (FT/S) (FT/S)
CEDAR KEY                  62      60/ 12/ 14 1016.6S
28.5N   84.5W              73 81   70/ 17/ 19 1014.5F   4/ 4
27.3N   84.3W                 82                N/A     5/ 5
CLEARWATER BEACH NOT AVBL
MIDDLE TAMPA BAY           70      80/ 20/ 23 1014.5F
VENICE                     68 80   50/ 10/ 13 1012.9F

$$
FLZ066-069-070-075>078-162-262-165-265-230900-
SOUTHWEST FLORIDA AND KEYS

CITY           SKY/WX    TMP DP  RH WIND       PRES   REMARKS
PUNTA GORDA    CLOUDY    69  64  84 NE10      29.93F
FT MYERS       CLOUDY    71  65  81 NE9       29.90F
SOUTHWEST INTL CLOUDY    70  65  84 E9        29.90F
NAPLES         CLOUDY    74  71  91 E8        29.88F
MARATHON       LGT RAIN  74  32  21 E8        29.87F
KEY WEST NAS   CLOUDY   N/A N/A N/A E17       29.85F
KEY WEST INTL  LGT RAIN  76  75  97 E13       29.85F

STATION/POSITION SKY/WX   TEMP    WIND        PRES    WAVE   SWELL
                          AIR SEA DIR/SP/G            HT/PER HT/PER
                          (F)     (DEG/KT/KT) (MB)    (FT/S) (FT/S)
VENICE                     68 80   50/ 10/ 13 1012.9F
NAPLES                     74 83   50/  5/  7 1012.4F
26.0N   85.6W              79 82   40/ 17/ 21 1012.0F   6/ 6
DRY TORTUGAS               79     100/ 22/ 25 1010.1F
NW FL BAY                  77      90/ 10/ 11 1012.5F
SAND KEY                   77      30/  5/ 18 1010.6F
SOMBRERO KEY               76     100/ 18/ 19 1011.7F
LONG KEY                   77 79  130/ 12/ 13 1012.7F
MOLASSES REEF              78 83   80/ 12/ 15 1011.8F

$$
FLZ067-068-071>074-168-172>174-230900-
SOUTHEAST FLORIDA

CITY           SKY/WX    TMP DP  RH WIND       PRES   REMARKS
W PALM BEACH   LGT RAIN  78  68  71 CALM      29.89F
FT LAUDER-EXEC CLOUDY    76  72  87 CALM      29.89F
FT LAUDERDALE  LGT RAIN  76  72  87 CALM      29.88F
POMPANO BEACH  CLOUDY    76  73  91 N8        29.89F
PEMBROKE PINES CLOUDY    74  71  91 VRB5      29.90F
OPA LOCKA      LGT RAIN  74  72  93 SE3       29.89F
MIAMI          LGT RAIN  75  73  93 E3        29.89F
WEST KENDALL   LGT RAIN  75  73  93 CALM      29.89F
HOMESTEAD      CLOUDY    74  73  97 CALM      29.89F

STATION/POSITION SKY/WX   TEMP    WIND        PRES    WAVE   SWELL
                          AIR SEA DIR/SP/G            HT/PER HT/PER
                          (F)     (DEG/KT/KT) (MB)    (FT/S) (FT/S)
PORT EVERGLADES            75     230/  3/  7 1012.0
VIRGINIA KEY               75 81  350/  2/  4 1012.5F
LAKE WORTH                 74 82  140/ 16/ 17 1012.1S
FOWEY ROCKS                78 80  110/  6/  7 1012.2F
SETTLEMENT POINT           78      50/ 14/ 15 1012.9F

$$




USA.gov is the U.S. government's official web portal to all federal, state and local government web resources and services.